RH
96 94 95 96 73 62 62 62 58 51 57 54 58 54 54 50 58 62 75 80 76 68 63 63 63 64 63 63 62 62 62 61 61 60 61 60 59 58 57 56 56 56 56
92 95 95 91 59 57 54 54 57 58 54 56 60 56 51 51 56 63 70 79 78 74 68 63 63 63 63 62 62 61 61 60 59 60 59 60 58 57 56 54 53 53 54
91 91 93 90 61 56 54 62 58 61 62 53 58 59 58 55 54 60 64 70 79 79 75 70 64 62 61 60 61 59 59 59 59 59 59 58 58 56 54 52 49 48 48
84 86 89 91 86 77 68 58 62 64 63 63 63 62 60 57 56 58 60 64 69 65 77 76 72 67 62 59 58 58 57 58 58 58 58 60 58 57 54 52 50 48 48
85 85 91 92 92 88 78 65 68 66 63 62 58 63 61 62 63 51 55 59 64 64 68 79 79 78 73 66 60 59 57 56 57 59 59 59 60 59 57 55 54 52 50
91 92 95 95 86 86 76 73 66 66 62 60 38 49 62 66 64 67 60 54 57 61 63 67 75 74 80 73 68 62 61 60 58 58 59 60 60 60 60 59 56 55 54
84 91 95 94 86 81 77 71 68 64 60 58 64 65 61 61 66 66 66 65 64 64 68 69 71 69 73 79 75 66 64 63 62 61 59 60 62 62 63 62 61 60 58
80 80 76 76 72 73 73 74 68 71 66 67 66 66 70 66 62 62 66 66 67 69 71 71 70 69 67 72 76 76 70 67 65 63 64 65 65 65 66 66 66 64 64
68 62 66 61 62 63 67 71 72 69 70 70 69 77 86 87 75 66 66 68 66 75 70 66 70 70 74 73 75 78 83 82 76 69 70 72 71 70 68 67 68 68 68
66 57 61 60 72 68 72 69 74 68 78 68 81 80 90 88 91 95 80 70 69 71 74 71 74 73 70 80 77 80 84 87 83 79 73 69 66 68 68 68 68 70 71
70 69 64 68 71 79 79 73 78 82 88 89 76 84 85 91 92 89 96 95 79 65 64 70 70 66 54 57 81 80 86 90 86 82 79 74 70 67 65 63 61 61 62
75 72 74 79 78 84 79 85 84 86 84 86 92 89 84 85 91 94 95 88 90 84 70 64 69 63 61 75 70 73 84 86 89 87 83 80 73 69 65 62 62 61 59
73 72 75 81 79 80 85 83 83 84 88 88 86 84 88 87 84 85 89 89 93 94 94 92 82 70 63 71 63 72 83 88 87 87 85 83 77 70 64 61 60 60 60
66 69 72 73 75 78 82 84 88 80 87 93 89 86 85 82 78 72 81 92 96 97 97 92 93 85 83 76 78 81 83 89 89 87 84 82 78 75 71 68 66 66 65
60 66 77 74 69 73 75 74 85 80 80 84 82 84 82 78 82 78 89 89 91 94 96 90 92 85 79 81 78 80 77 88 86 86 84 81 78 77 74 70 68 67 65
63 67 74 74 74 72 71 72 72 73 78 84 87 86 82 82 87 89 88 88 87 85 92 84 88 87 72 60 83 80 74 86 86 85 82 82 78 73 68 65 65 62 58
68 65 68 69 69 68 67 69 68 66 72 77 81 82 83 86 88 90 90 92 95 94 94 85 90 88 82 73 72 75 77 77 78 84 82 81 75 70 68 65 64 62 62
65 62 60 62 63 65 66 70 67 61 65 73 76 82 83 81 86 86 95 94 96 91 97 97 95 96 87 71 70 72 70 60 71 79 83 80 74 70 67 68 71 69 68
66 62 59 61 61 63 64 64 64 65 67 65 68 75 76 79 86 91 93 96 96 97 96 97 95 96 94 89 79 77 78 77 47 83 82 75 70 69 69 68 72 71 71
73 71 68 66 63 64 64 62 61 67 68 68 70 72 72 76 84 91 95 96 96 98 97 98 97 97 96 93 90 87 86 78 65 42 51 50 63 70 70 70 74 74 76
70 69 70 69 66 65 62 65 62 66 69 70 70 70 72 77 92 90 91 93 96 98 98 98 100 99 98 98 93 93 93 85 73 60 52 51 55 56 67 77 71 76 76
69 69 69 70 71 62 72 79 71 66 65 67 70 70 74 95 92 95 100 100 96 97 98 98 96 97 96 94 97 94 90 86 82 62 59 59 55 65 60 62 63 74 75
74 72 71 69 70 69 80 82 82 65 69 72 74 75 92 98 100 99 100 100 99 98 100 94 96 98 97 94 94 96 95 92 89 67 61 71 71 72 60 40 63 74 76
72 75 74 72 71 66 82 85 86 76 73 75 88 92 93 99 99 99 99 99 97 96 96 94 96 97 96 95 91 91 96 91 80 68 63 89 70 75 71 66 66 68 73
71 72 72 74 73 72 85 88 90 84 81 96 99 99 99 100 99 97 97 98 98 98 99 96 96 98 97 96 96 99 98 95 95 71 65 74 73 77 72 76 69 57 67
70 71 76 92 100 85 100 100 97 99 99 99 98 98 98 97 97 96 96 94 96 98 96 96 95 90 90 82 78 84 88 95 93 85 67 90 74 78 88 84 75 72 70
Wind_Speed
10 10 11 8 8 9 8 9 7 9 7 6 4 5 3 14 14 8 4 13 12 15 16 17 16 16 15 15 14 13 14 13 13 13 12 12 12 11 10 10 9 8 8
11 10 9 11 9 10 9 8 6 6 6 5 6 5 5 12 14 13 7 7 12 12 13 16 16 15 15 14 14 13 12 12 12 11 11 11 11 10 8 8 7 6 6
15 12 9 5 8 9 11 6 7 4 5 5 5 3 4 8 12 14 10 7 7 11 12 13 14 15 14 14 13 13 12 12 11 11 10 10 9 8 7 6 5 4 3
17 13 11 6 4 5 5 7 6 5 5 5 4 3 4 3 11 13 11 9 7 7 9 13 14 14 14 14 14 14 13 12 12 11 11 10 9 8 7 7 6 5 5
12 13 9 6 3 5 5 5 4 4 4 5 5 3 4 4 4 9 13 12 13 10 7 12 14 13 14 15 15 15 14 14 14 14 13 12 11 10 10 9 8 9 7
15 12 8 5 3 4 5 5 5 3 3 5 7 4 3 4 5 4 8 9 11 13 12 12 9 9 14 16 17 18 17 17 16 15 15 14 13 13 13 12 11 11 11
12 12 6 3 3 2 5 6 4 5 1 3 2 3 1 3 6 4 4 4 5 5 7 11 9 7 9 18 18 19 19 18 18 17 16 16 16 16 15 14 14 15 14
16 10 12 10 8 5 6 6 6 3 4 6 4 4 3 1 2 3 4 5 6 4 5 6 11 12 10 9 12 21 21 21 21 20 20 19 18 18 18 18 18 17 18
14 12 12 9 11 9 8 8 7 7 4 2 3 4 4 4 4 3 3 3 5 4 5 8 6 7 8 9 12 15 18 16 19 20 19 20 20 19 21 21 20 21 20
12 13 12 12 8 7 7 7 5 7 5 6 2 2 1 4 3 1 2 5 5 6 6 4 5 6 6 5 8 12 17 19 19 18 16 14 13 15 17 19 19 19 19
10 8 14 12 9 6 7 9 7 6 4 5 4 3 3 4 3 4 3 4 4 5 6 7 6 6 10 10 6 8 12 16 19 20 18 17 18 17 16 15 16 16 16
6 9 10 9 9 5 11 7 6 7 6 5 5 5 4 4 4 3 3 4 7 5 8 9 9 9 8 5 8 13 15 16 15 16 16 14 15 15 15 13 12 12 13
7 11 12 10 9 7 6 8 11 10 8 6 6 4 5 4 3 5 4 4 5 3 3 4 6 8 8 7 10 16 15 16 16 14 12 11 11 12 11 9 10 11 12
12 12 13 13 12 9 6 7 5 8 6 6 7 7 6 6 6 6 5 4 3 3 3 5 4 8 7 8 9 14 9 15 12 11 12 12 11 9 8 9 8 9 10
11 13 12 13 14 13 11 9 7 9 9 10 9 12 10 8 7 8 5 6 6 6 6 6 6 7 8 5 6 6 7 12 13 14 14 13 12 10 9 8 8 8 9
15 15 14 13 12 12 12 12 10 10 11 6 7 10 11 9 7 6 6 6 8 9 10 6 6 5 8 7 7 7 7 13 15 14 13 11 10 9 8 8 8 9 11
17 16 16 16 16 15 15 15 14 13 13 12 10 11 13 11 8 7 7 7 7 7 11 8 6 8 7 6 6 6 6 7 7 13 15 14 13 11 9 8 9 10 10
19 20 18 18 18 18 17 17 18 16 17 14 14 13 14 9 11 11 6 10 9 8 7 13 7 5 5 9 9 10 8 8 8 16 15 14 13 12 11 10 10 10 10
21 21 21 21 21 20 20 20 19 18 17 17 16 14 15 12 12 9 9 8 8 7 9 11 7 2 2 4 6 4 4 4 4 14 13 13 14 14 12 10 10 12 12
20 21 21 21 20 19 20 20 20 18 17 16 15 15 15 14 14 13 10 11 9 9 10 10 7 3 2 3 4 7 5 4 4 8 10 10 14 15 13 13 14 15 16
18 18 19 19 20 18 16 20 19 18 18 19 17 15 14 14 15 16 11 13 12 11 10 10 6 3 4 4 12 5 7 4 4 4 3 4 4 4 6 13 13 17 19
19 19 19 19 19 16 20 20 19 17 18 17 17 16 14 13 15 17 16 12 13 13 13 10 10 10 13 6 4 3 3 3 1 3 4 4 3 3 4 4 7 14 14
17 20 20 19 21 20 19 20 21 17 15 14 14 13 7 5 8 6 5 9 8 8 1 11 11 4 3 3 5 4 3 3 1 3 2 3 0 2 3 4 8 9 13
18 17 17 18 18 17 16 18 18 15 15 14 8 7 7 7 7 9 8 6 6 7 6 6 8 7 7 7 6 4 3 3 2 2 2 2 2 3 4 3 8 10 7
15 16 15 16 17 15 15 18 16 12 13 3 5 5 5 6 9 13 11 11 9 9 13 20 19 17 17 17 10 4 3 2 2 2 1 2 3 4 3 3 4 10 10
14 11 10 1 1 8 5 5 10 5 7 6 7 8 13 12 14 10 10 10 11 7 8 7 6 8 7 7 8 2 2 2 1 2 4 2 3 2 4 3 2 3 4
Wind_Direction
157 167 159 149 156 144 152 164 183 148 156 171 182 136 235 117 121 124 130 129 134 143 143 141 141 141 140 137 138 137 134 134 130 133 129 127 122 123 119 113 111 109 99
166 167 160 158 167 157 156 175 168 150 144 178 131 197 141 126 126 130 132 137 144 150 152 150 151 151 153 152 151 153 150 151 149 148 144 141 140 139 134 130 130 127 114
161 160 151 159 148 162 171 180 133 130 123 140 157 169 113 121 139 136 148 147 154 161 160 160 164 164 166 166 168 167 169 171 168 167 164 163 160 159 157 150 147 151 141
153 147 142 164 162 155 149 138 124 139 142 138 135 154 136 120 128 147 154 154 160 171 176 171 177 178 178 180 183 182 181 183 181 181 185 185 184 185 185 185 190 204 206
137 135 144 145 241 115 109 126 114 132 143 131 137 177 139 134 136 160 160 164 171 168 177 186 184 187 189 195 194 195 193 194 194 197 196 198 200 203 207 210 213 223 228
118 115 100 97 68 101 105 104 115 97 132 144 158 160 151 148 167 182 160 166 181 170 181 180 188 196 196 202 206 207 205 203 205 207 206 206 209 212 216 220 226 233 237
106 110 91 126 135 122 134 125 118 126 134 96 131 121 187 163 172 173 169 167 165 170 173 176 185 196 204 205 210 217 217 214 214 215 217 219 216 218 221 227 232 238 242
138 145 158 173 165 167 149 146 142 146 179 197 146 136 153 291 262 212 177 169 186 168 194 190 194 198 199 205 213 217 226 228 225 216 217 221 223 223 227 228 233 240 243
169 174 162 179 168 175 170 166 165 172 171 163 170 155 150 196 141 224 219 183 193 198 203 206 193 199 203 189 206 216 220 235 241 237 224 223 224 222 227 234 238 243 248
182 180 176 192 175 174 165 155 178 190 157 171 66 222 6 142 159 169 264 218 212 204 199 193 196 214 228 215 213 198 204 218 228 237 238 234 230 231 238 243 248 253 257
211 184 172 177 186 189 163 170 181 203 178 155 178 142 192 233 154 177 188 226 220 213 207 203 205 208 218 221 202 210 195 206 217 224 227 232 240 245 247 255 260 264 270
197 178 169 174 180 186 180 169 170 184 196 167 171 198 173 175 185 172 222 211 205 212 211 214 206 217 216 204 211 209 203 203 209 208 211 218 235 245 248 250 256 262 271
191 197 186 183 184 192 162 176 200 196 194 186 200 220 206 210 200 188 187 227 227 187 214 229 207 207 215 211 225 204 192 197 199 197 204 208 219 223 223 233 249 264 274
198 189 193 190 186 183 182 188 195 213 207 187 195 220 216 214 216 218 212 200 261 250 199 225 209 226 222 219 212 177 178 186 186 189 190 187 188 190 195 220 242 257 269
197 195 191 196 198 187 192 203 200 207 219 211 198 213 226 223 214 221 217 209 209 239 233 226 226 218 223 203 190 170 169 171 180 181 179 183 182 186 197 208 230 250 265
198 191 194 198 200 204 205 210 219 218 214 213 202 212 222 224 222 225 224 223 227 228 247 200 217 218 216 212 168 145 172 172 182 180 172 179 182 181 198 216 234 249 257
198 198 195 200 206 209 213 216 223 226 216 215 214 219 222 215 220 224 222 224 219 214 233 238 214 213 210 174 166 167 162 162 174 179 177 182 181 190 200 226 238 248 259
203 205 203 209 212 214 216 220 224 224 227 221 221 221 225 221 225 227 212 218 220 226 224 245 211 209 188 190 176 180 170 180 177 200 185 181 182 194 208 217 233 248 253
208 209 209 210 211 214 219 222 223 225 227 229 227 225 229 220 225 225 214 216 217 223 228 239 243 179 193 147 168 171 191 149 152 158 169 178 195 209 218 220 227 239 247
205 206 209 213 217 214 218 224 224 221 225 229 232 227 229 227 220 215 209 214 217 226 230 232 229 179 181 172 165 170 190 189 180 173 190 198 205 212 205 217 227 233 235
207 207 207 209 215 214 217 218 219 221 222 226 225 226 228 226 204 208 214 217 211 214 223 224 196 160 172 180 199 183 192 167 211 188 201 201 177 195 214 225 231 236 236
209 209 211 210 213 217 217 210 216 222 225 228 231 233 231 211 218 213 204 210 206 214 215 219 221 214 206 215 156 156 90 102 170 260 213 244 179 197 221 205 217 228 226
209 213 214 215 218 219 214 209 210 223 230 232 233 231 206 189 190 181 145 122 83 68 303 217 218 193 112 119 124 107 99 104 241 311 13 283 230 244 273 274 278 223 206
215 215 217 219 223 227 211 204 203 217 230 238 221 206 205 176 176 152 144 121 83 61 53 74 84 80 77 80 85 84 101 193 233 289 74 221 273 269 271 266 301 294 237
216 217 221 222 226 232 212 205 184 201 221 132 80 67 109 107 116 131 124 113 92 75 64 80 86 85 81 73 74 100 128 138 266 255 301 210 243 254 234 252 267 289 299
218 216 217 276 20 203 72 169 191 131 112 106 80 74 84 101 100 112 122 124 102 82 89 71 47 74 84 99 110 66 120 82 140 11 14 7 346 32 325 241 236 351 316